Home > Weather > Porsgrunn > Past weeks

Flag for Norway Weather for the Past 2 Weeks in Porsgrunn, Norway

Now
49 °F

Cool.


Feels Like: 45 °F
Forecast: 40 / 61 °F
Wind: 9 mph from Southwest

Location: Jomfruland Fyr

Current Time: May 5, 2016 at 12:34:10 PM

Latest Report: May 5, 2016 at 11:00 AM


Visibility: N/A

Pressure: 30.35 "Hg

Humidity: 82%

Dew Point: 44 °F

Location of PorsgrunnLocation

Historic Weather in Porsgrunn — Graph

°F

Porsgrunn Temperature Yesterday

Maximum temperature yesterday: 53 °F (at 11:00 AM)
Minimum temperature yesterday: 41 °F (at 6:00 AM)
Average temperature yesterday: 48 °F

High & Low Weather Summary for the Past Weeks

 TemperatureHumidityPressure
High58 °F (Apr 21, 2:00 PM)94% (May 3, 1:00 AM)30.35 "Hg (May 3, 1:00 AM)
Low35 °F (Apr 23, 6:00 AM)25% (Apr 22, 12:00 PM)29.61 "Hg (Apr 25, 1:00 PM)
Average44 °F67%29.98 "Hg
* Reported Apr 20 11:00 AM — May 5 11:00 AM, Porsgrunn, Weather by CustomWeather, © 2016

Note: Actual official high and low records may vary slightly from our data, if they occured in-between our weather recording intervals... More about our weather records

Advertising

Porsgrunn Weather History for the Previous 24 Hours

Scroll right to see more
 ConditionsComfort  
Time TempWeatherWind HumidityBarometerVisibility
11:00 AM
Thu, May 5
49 °FCool.9 mph82%30.35 "HgN/A
10:00 AM48 °FCool.7 mph87%30.35 "HgN/A
9:00 AM47 °FCool.8 mph87%30.35 "HgN/A
8:00 AM47 °FCool.6 mph80%30.35 "HgN/A
7:00 AM46 °FCool.6 mph81%30.35 "HgN/A
6:00 AM46 °FCool.6 mph82%30.34 "HgN/A
5:00 AM46 °FCool.7 mph86%30.34 "HgN/A
4:00 AM46 °FCool.7 mph85%30.34 "HgN/A
3:00 AM46 °FCool.6 mph76%30.34 "HgN/A
2:00 AM46 °FCool.5 mph80%30.33 "HgN/A
1:00 AM46 °FCool.5 mph82%30.33 "HgN/A
12:00 AM47 °FCool.7 mph89%30.32 "HgN/A
11:00 PM
Wed, May 4
47 °FCool.8 mph89%30.32 "HgN/A
10:00 PM47 °FCool.9 mph85%30.31 "HgN/A
9:00 PM48 °FCool.9 mph81%30.29 "HgN/A
8:00 PM49 °FCool.12 mph71%30.28 "HgN/A
7:00 PM50 °FCool.10 mph72%30.29 "HgN/A
6:00 PM50 °FCool.9 mph72%30.29 "HgN/A
5:00 PM51 °FCool.9 mph73%30.30 "HgN/A
4:00 PM51 °FCool.7 mph76%30.32 "HgN/A
3:00 PM50 °FCool.9 mph79%30.32 "HgN/A
2:00 PM51 °FCool.8 mph70%30.32 "HgN/A
1:00 PM52 °FCool.7 mph62%30.31 "HgN/A
12:00 PM52 °FCool.6 mph60%30.31 "HgN/A
Weather by CustomWeather, © 2016

See weather overviewHow to use our weather pages